• In Hungary
  • List of Countries
  • For 7 days
  • Water Temperature
  • Satellite Maps
  • Weather Map
  • News
  • Weather Widgets
  • user-avatar
    Login

    Hourly Weather Gazgan

    Today, 18 October, Thursday

    Time Temperature Precipitation Wind Pressure Humidity
    00:00 +4°C° 0 mm 2 mps 717 mmHg 45%
    01:00 +3°C° 0 mm 2 mps 716 mmHg 44%
    02:00 +3°C° 0 mm 2 mps 716 mmHg 44%
    03:00 +3°C° 0 mm 2 mps 716 mmHg 43%
    04:00 +3°C° 0 mm 2 mps 716 mmHg 43%
    05:00 +4°C° 0 mm 2 mps 715 mmHg 43%
    06:00 +4°C° 0 mm 2 mps 715 mmHg 42%
    07:00 +6°C° 0 mm 1 mps 715 mmHg 42%
    08:00 +7°C° 0 mm 2 mps 715 mmHg 37%
    09:00 +9°C° 0 mm 2 mps 715 mmHg 32%
    10:00 +12°C° 0 mm 2 mps 715 mmHg 27%
    11:00 +13°C° 0 mm 2 mps 715 mmHg 25%
    12:00 +14°C° 0 mm 2 mps 714 mmHg 23%
    13:00 +15°C° 0 mm 2 mps 714 mmHg 21%
    14:00 +15°C° 0 mm 2 mps 714 mmHg 21%
    15:00 +15°C° 0 mm 2 mps 714 mmHg 21%
    16:00 +15°C° 0 mm 2 mps 714 mmHg 22%
    17:00 +13°C° 0 mm 2 mps 714 mmHg 24%
    18:00 +12°C° 0 mm 2 mps 714 mmHg 26%
    19:00 +10°C° 0 mm 2 mps 714 mmHg 28%
    20:00 +9°C° 0 mm 2 mps 714 mmHg 29%
    21:00 +10°C° 0 mm 1 mps 714 mmHg 30%
    22:00 +9°C° 0 mm 1 mps 714 mmHg 30%
    23:00 +9°C° 0 mm 1 mps 714 mmHg 31%

    Tomorrow, 19 October, Friday

    Time Temperature Precipitation Wind Pressure Humidity
    00:00 +9°C° 0 mm 1 mps 714 mmHg 31%
    01:00 +8°C° 0 mm 1 mps 714 mmHg 31%
    02:00 +8°C° 0 mm 1 mps 714 mmHg 31%
    03:00 +8°C° 0 mm 1 mps 714 mmHg 31%
    04:00 +8°C° 0 mm 1 mps 714 mmHg 31%
    05:00 +8°C° 0 mm 1 mps 714 mmHg 31%
    06:00 +9°C° 0 mm 1 mps 715 mmHg 30%
    07:00 +9°C° 0 mm 1 mps 715 mmHg 29%
    08:00 +11°C° 0 mm 1 mps 715 mmHg 26%
    09:00 +12°C° 0 mm 1 mps 716 mmHg 23%
    10:00 +14°C° 0 mm 1 mps 716 mmHg 20%
    11:00 +15°C° 0 mm 1 mps 716 mmHg 19%
    12:00 +16°C° 0 mm 1 mps 716 mmHg 18%
    13:00 +17°C° 0 mm 2 mps 716 mmHg 17%
    14:00 +16°C° 0 mm 2 mps 716 mmHg 18%
    15:00 +16°C° 0 mm 2 mps 715 mmHg 18%
    16:00 +16°C° 0 mm 2 mps 715 mmHg 19%
    17:00 +15°C° 0 mm 2 mps 715 mmHg 21%
    18:00 +13°C° 0 mm 2 mps 716 mmHg 23%
    19:00 +12°C° 0 mm 2 mps 716 mmHg 25%
    20:00 +11°C° 0 mm 1 mps 716 mmHg 26%
    21:00 +11°C° 0 mm 1 mps 716 mmHg 28%
    22:00 +10°C° 0 mm 1 mps 716 mmHg 29%
    23:00 +10°C° 0 mm 1 mps 715 mmHg 30%

    Day after tomorrow, 20 October, Saturday

    Time Temperature Precipitation Wind Pressure Humidity
    00:00 +10°C° 0 mm 1 mps 715 mmHg 31%
    01:00 +9°C° 0 mm 1 mps 715 mmHg 32%
    02:00 +9°C° 0 mm 1 mps 715 mmHg 33%
    03:00 +9°C° 0 mm 1 mps 715 mmHg 34%
    04:00 +9°C° 0 mm 1 mps 715 mmHg 35%
    05:00 +9°C° 0 mm 1 mps 715 mmHg 34%
    06:00 +10°C° 0 mm 1 mps 715 mmHg 34%
    07:00 +11°C° 0 mm 1 mps 716 mmHg 33%
    08:00 +12°C° 0 mm 2 mps 716 mmHg 30%
    09:00 +14°C° 0 mm 2 mps 716 mmHg 27%
    10:00 +16°C° 0 mm 2 mps 716 mmHg 24%
    11:00 +16°C° 0 mm 2 mps 716 mmHg 23%
    12:00 +17°C° 0 mm 3 mps 716 mmHg 22%
    13:00 +18°C° 0 mm 3 mps 716 mmHg 21%
    14:00 +18°C° 0 mm 3 mps 715 mmHg 22%
    15:00 +17°C° 0 mm 3 mps 715 mmHg 23%
    16:00 +17°C° 0 mm 3 mps 715 mmHg 23%
    17:00 +16°C° 0 mm 2 mps 715 mmHg 26%
    18:00 +15°C° 0 mm 2 mps 715 mmHg 28%
    19:00 +13°C° 0 mm 2 mps 715 mmHg 30%
    20:00 +13°C° 0 mm 2 mps 715 mmHg 31%
    21:00 +12°C° 0 mm 2 mps 715 mmHg 32%
    22:00 +12°C° 0 mm 2 mps 715 mmHg 33%
    23:00 +10°C° 0 mm 2 mps 715 mmHg 34%

    21 October, Sunday

    Time Temperature Precipitation Wind Pressure Humidity
    00:00 +11°C° 0 mm 1 mps 714 mmHg 34%
    01:00 +11°C° 0 mm 1 mps 714 mmHg 34%
    02:00 +10°C° 0 mm 1 mps 714 mmHg 34%
    03:00 +10°C° 0 mm 1 mps 714 mmHg 33%
    04:00 +10°C° 0 mm 1 mps 714 mmHg 33%
    05:00 +10°C° 0 mm 1 mps 714 mmHg 32%
    06:00 +11°C° 0 mm 1 mps 714 mmHg 31%
    07:00 +12°C° 0 mm 1 mps 714 mmHg 31%
    08:00 +14°C° 0 mm 2 mps 714 mmHg 27%
    09:00 +16°C° 0 mm 2 mps 715 mmHg 24%
    10:00 +18°C° 0 mm 2 mps 715 mmHg 21%
    11:00 +20°C° 0 mm 2 mps 715 mmHg 19%
    12:00 +21°C° 0 mm 2 mps 714 mmHg 18%
    13:00 +23°C° 0 mm 2 mps 714 mmHg 16%
    14:00 +21°C° 0 mm 2 mps 714 mmHg 17%
    15:00 +21°C° 0 mm 2 mps 714 mmHg 18%
    16:00 +21°C° 0 mm 2 mps 714 mmHg 19%
    17:00 +19°C° 0 mm 2 mps 714 mmHg 21%
    18:00 +18°C° 0 mm 2 mps 713 mmHg 23%
    19:00 +16°C° 0 mm 2 mps 713 mmHg 25%
    20:00 +16°C° 0 mm 2 mps 713 mmHg 26%
    21:00 +15°C° 0 mm 2 mps 713 mmHg 26%
    22:00 +15°C° 0 mm 2 mps 713 mmHg 27%
    23:00 +14°C° 0 mm 1 mps 713 mmHg 28%

    22 October, Monday

    Time Temperature Precipitation Wind Pressure Humidity
    00:00 +14°C° 0 mm 1 mps 712 mmHg 28%
    01:00 +13°C° 0 mm 1 mps 712 mmHg 28%
    02:00 +13°C° 0 mm 1 mps 712 mmHg 29%
    03:00 +13°C° 0 mm 1 mps 712 mmHg 29%
    04:00 +12°C° 0 mm 1 mps 712 mmHg 29%
    05:00 +13°C° 0 mm 1 mps 712 mmHg 28%
    06:00 +14°C° 0 mm 1 mps 712 mmHg 28%
    07:00 +14°C° 0 mm 1 mps 712 mmHg 27%
    08:00 +18°C° 0 mm 1 mps 712 mmHg 23%
    09:00 +20°C° 0 mm 1 mps 713 mmHg 20%
    10:00 +22°C° 0 mm 1 mps 713 mmHg 16%
    11:00 +23°C° 0 mm 1 mps 713 mmHg 15%
    12:00 +24°C° 0 mm 2 mps 713 mmHg 14%
    13:00 +25°C° 0 mm 2 mps 712 mmHg 12%
    14:00 +24°C° 0 mm 2 mps 712 mmHg 13%
    15:00 +24°C° 0 mm 2 mps 712 mmHg 14%
    16:00 +23°C° 0 mm 2 mps 712 mmHg 15%
    17:00 +21°C° 0 mm 1 mps 712 mmHg 17%
    18:00 +20°C° 0 mm 1 mps 712 mmHg 19%
    19:00 +18°C° 0 mm 1 mps 712 mmHg 21%
    20:00 +18°C° 0 mm 1 mps 711 mmHg 22%
    21:00 +16°C° 0 mm 1 mps 711 mmHg 23%
    22:00 +15°C° 0 mm 1 mps 711 mmHg 24%
    23:00 +15°C° 0 mm 1 mps 711 mmHg 24%

    23 October, Tuesday

    Time Temperature Precipitation Wind Pressure Humidity
    00:00 +15°C° 0 mm 1 mps 711 mmHg 24%
    01:00 +15°C° 0 mm 1 mps 711 mmHg 25%
    02:00 +14°C° 0 mm 1 mps 711 mmHg 25%
    03:00 +14°C° 0 mm 1 mps 711 mmHg 25%
    04:00 +14°C° 0 mm 1 mps 711 mmHg 25%
    05:00 +14°C° 0 mm 1 mps 711 mmHg 25%
    06:00 +15°C° 0 mm 1 mps 712 mmHg 24%
    07:00 +15°C° 0 mm 1 mps 712 mmHg 24%
    08:00 +18°C° 0 mm 1 mps 712 mmHg 21%
    09:00 +20°C° 0 mm 1 mps 712 mmHg 18%
    10:00 +22°C° 0 mm 1 mps 713 mmHg 15%
    11:00 +23°C° 0 mm 1 mps 713 mmHg 15%
    12:00 +23°C° 0 mm 1 mps 713 mmHg 15%
    13:00 +24°C° 0 mm 2 mps 712 mmHg 15%
    14:00 +23°C° 0 mm 2 mps 713 mmHg 16%
    15:00 +23°C° 0 mm 2 mps 713 mmHg 18%
    16:00 +21°C° 0 mm 2 mps 713 mmHg 19%
    17:00 +20°C° 0 mm 2 mps 713 mmHg 21%
    18:00 +18°C° 0 mm 2 mps 713 mmHg 23%
    19:00 +17°C° 0 mm 2 mps 713 mmHg 26%
    20:00 +16°C° 0 mm 2 mps 713 mmHg 27%
    21:00 +16°C° 0 mm 1 mps 713 mmHg 29%
    22:00 +15°C° 0 mm 1 mps 713 mmHg 31%
    23:00 +15°C° 0 mm 1 mps 713 mmHg 32%
    Show more